This is the latest recevied weather packets stored in our database for station/object K7PMV-13. If no packets are shown the sender has not sent any weather packets the latest 10 day(s).
| Time | Temp. | Humidity | Pressure | Rain* | Wind** | Luminosity | Snow |
|---|---|---|---|---|---|---|---|
| 1777820469 | 26.11° C | 35% | 1007.4 hPa | 0 mm | - | 209 W/m² | - |
| 1777820154 | 26.11° C | 36% | 1007.4 hPa | 0 mm | - | 197 W/m² | - |
| 1777819830 | 26.11° C | 36% | 1007.4 hPa | 0 mm | - | 209 W/m² | - |
| 1777819515 | 25.56° C | 36% | 1007.3 hPa | 0 mm | - | 190 W/m² | - |
| 1777819196 | 25.56° C | 36% | 1007.2 hPa | 0 mm | - | 176 W/m² | - |
| 1777818865 | 25.56° C | 36% | 1007.3 hPa | 0 mm | - | 153 W/m² | - |
| 1777818551 | 25.56° C | 36% | 1007.3 hPa | 0 mm | - | 137 W/m² | - |
| 1777818233 | 25° C | 36% | 1007.3 hPa | 0 mm | - | 125 W/m² | - |
| 1777817900 | 25° C | 36% | 1007.4 hPa | 0 mm | - | 113 W/m² | - |
| 1777817221 | 25° C | 36% | 1007.3 hPa | 0 mm | - | 102 W/m² | - |
| 1777816906 | 25° C | 36% | 1007.2 hPa | 0 mm | - | 93 W/m² | - |
| 1777816587 | 25° C | 36% | 1007.1 hPa | 0 mm | - | 77 W/m² | - |
| 1777816272 | 25° C | 36% | 1007.2 hPa | 0 mm | - | 72 W/m² | - |
| 1777815940 | 25° C | 36% | 1007 hPa | 0 mm | - | 69 W/m² | - |
| 1777815626 | 25° C | 36% | 1006.9 hPa | 0 mm | - | 62 W/m² | - |
| 1777815306 | 25° C | 35% | 1006.9 hPa | 0 mm | - | 49 W/m² | - |
| 1777814984 | 25° C | 36% | 1006.8 hPa | 0 mm | - | 51 W/m² | - |
| 1777814654 | 25° C | 36% | 1006.7 hPa | 0 mm | - | 42 W/m² | - |
| 1777814338 | 25° C | 36% | 1006.7 hPa | 0 mm | - | 39 W/m² | - |
| 1777814023 | 25° C | 36% | 1006.7 hPa | 0 mm | - | 32 W/m² | - |
| 1777813706 | 24.44° C | 36% | 1006.7 hPa | 0 mm | - | 26 W/m² | - |
| 1777813384 | 24.44° C | 36% | 1006.6 hPa | 0 mm | - | 19 W/m² | - |
| 1777813068 | 24.44° C | 36% | 1006.5 hPa | 0 mm | - | 14 W/m² | - |
| 1777812739 | 24.44° C | 36% | 1006.4 hPa | 0 mm | - | 12 W/m² | - |
| 1777812396 | 24.44° C | 36% | 1006.4 hPa | 0 mm | - | 7 W/m² | - |
* Rain latest hour (hover to see other rain measurements)
** Current wind speed in m/s (hover to see current wind gust speed)